Probability
0 0 0 0 0 0 0 0 0 0 0 0 0 0 0 0 0 0 0 0 0 0 0 0 0 0 0 0 0 0 0 0 0 0 0 0 0 0 0 0 0 0 0 0
0 0 0 0 0 0 0 0 0 0 0 0 0 0 0 0 0 0 0 0 0 0 0 0 0 0 0 0 0 0 0 0 0 0 0 0 0 0 0 0 0 0 0 0
0 0 0 0 0 0 0 0 0 0 0 0 0 0 0 0 0 0 0 0 0 0 0 0 0 0 0 0 0 0 0 0 0 0 0 0 0 0 0 0 0 0 0 0
0 0 0 0 0 0 0 0 0 0 0 0 0 0 0 0 0 0 0 0 0 0 0 0 0 0 0 0 0 0 0 0 0 0 0 0 0 0 0 0 0 0 0 0
0 0 0 0 0 0 0 0 0 0 0 0 0 0 0 0 0 0 0 0 0 0 0 0 0 0 0 0 0 0 0 0 0 0 0 0 0 0 0 0 0 0 0 0
0 0 0 0 0 0 0 0 0 0 0 0 0 0 0 0 0 0 0 0 0 0 0 0 0 0 0 0 0 0 0 0 0 0 0 0 0 0 0 0 0 0 0 0
0 0 0 0 0 0 0 0 0 0 0 0 0 0 0 0 0 0 0 0 0 0 0 0 0 0 0 0 0 0 0 0 0 0 0 0 0 0 0 0 0 0 0 0
0 0 0 0 0 0 0 0 0 0 0 0 0 0 0 0 0 0 0 0 0 0 0 0 0 0 0 0 0 0 0 0 0 0 0 0 0 0 0 0 0 0 0 0
0 0 0 0 0 0 0 0 0 0 0 0 0 0 0 0 0 0 0 0 0 0 0 0 0 0 0 0 0 0 0 0 0 0 0 0 0 0 0 0 0 0 0 0
0 0 0 0 0 0 0 0 0 0 0 0 0 0 0 0 0 0 0 0 0 0 0 0 0 0 0 0 0 0 0 0 0 0 0 0 0 0 0 0 0 0 0 0
0 0 0 0 0 0 0 0 0 0 0 0 0 0 0 0 0 0 0 0 0 0 0 0 0 0 0 0 0 0 0 0 0 0 0 0 0 0 0 0 0 0 0 0
0 0 0 0 0 0 0 0 0 0 0 0 0 0 0 0 0 0 0 0 0 0 0 0 0 0 0 0 0 0 0 0 0 0 0 0 0 0 0 0 0 0 0 0
0 0 0 0 0 0 0 0 0 0 0 0 0 0 0 0 0 0 0 0 0 0 0 0 0 0 0 0 0 0 0 0 0 0 0 0 0 0 0 0 0 0 0 0
0 0 0 0 0 0 0 0 0 0 0 0 0 0 0 0 0 0 0 0 0 0 0 0 0 0 0 0 0 0 0 0 0 0 0 0 0 0 0 0 0 0 0 0
0 0 0 0 0 0 0 0 0 0 0 0 0 0 0 0 0 0 0 0 0 0 0 0 0 0 0 0 0 0 0 0 0 0 0 0 0 0 0 0 0 0 0 0
0 0 0 0 0 0 0 0 0 0 0 0 0 0 0 0 0 0 0 0 0 0 0 0 0 0 0 0 0 0 0 0 0 0 0 0 0 0 0 0 0 0 0 0
0 0 0 0 0 0 0 0 0 0 0 0 0 0 0 0 0 0 0 0 0 0 0 0 0 0 0 0 0 0 0 0 0 0 0 0 0 0 0 0 0 0 0 0
0 0 0 0 0 0 0 0 0 0 0 0 0 0 0 0 0 0 0 0 0 0 0 0 0 0 0 0 0 0 0 0 0 0 0 0 0 0 0 0 0 0 0 0
0 0 0 0 0 0 0 0 0 0 0 0 0 0 0 0 0 0 0 0 0 0 0 0 0 0 0 0 0 0 0 0 0 0 0 0 0 0 0 0 0 0 0 0
0 0 0 0 0 0 0 0 0 0 0 0 0 0 0 0 0 0 0 0 0 0 0 0 0 0 0 0 0 0 0 0 0 0 0 0 0 0 0 0 0 0 0 0
0 0 0 0 0 0 0 0 0 0 0 0 0 0 0 0 0 0 0 0 0 0 0 0 0 0 0 0 0 0 0 0 0 0 0 0 0 0 0 0 0 0 0 0
0 0 0 0 0 0 0 0 0 0 0 0 0 0 0 0 0 0 0 0 0 0 0 0 0 0 0 0 0 0 0 0 0 0 0 0 0 0 0 0 0 0 0 0
0 0 0 0 0 0 0 0 0 0 0 0 0 0 0 0 0 0 0 0 0 0 0 0 0 0 0 0 0 0 0 0 0 0 0 0 0 0 0 0 0 0 0 0
0 0 0 0 0 0 0 0 0 0 0 0 0 0 0 0 0 0 0 0 0 0 0 0 0 0 0 0 0 0 0 0 0 0 0 0 0 0 0 0 0 0 0 0
0 0 0 0 0 0 0 0 0 0 0 0 0 0 0 0 0 0 0 0 0 0 0 0 0 0 0 0 0 0 0 0 0 0 0 0 0 0 0 0 0 0 0 0
0 0 0 0 0 0 0 0 0 0 0 0 0 0 0 0 0 0 0 0 0 0 0 0 0 0 0 0 0 0 0 0 0 0 0 0 0 0 0 0 0 0 0 0
Height
5807 5806 5804 5802 5800 5799 5798 5796 5795 5793 5792 5790 5787 5782 5778 5779 5776 5772 5768 5765 5762 5758 5755 5752 5748 5744 5741 5737 5733 5729 5725 5722 5718 5715 5712 5710 5708 5705 5704 5702 5700 5699 5698 5698
5807 5805 5803 5802 5800 5799 5797 5795 5793 5791 5788 5786 5784 5780 5775 5772 5769 5764 5760 5756 5752 5748 5744 5740 5736 5732 5728 5723 5719 5714 5710 5706 5702 5699 5696 5694 5692 5689 5687 5685 5684 5682 5681 5680
5806 5805 5803 5801 5800 5797 5795 5793 5790 5788 5785 5781 5777 5774 5769 5766 5762 5757 5752 5747 5742 5737 5732 5727 5722 5718 5713 5709 5704 5699 5694 5690 5686 5682 5679 5675 5673 5671 5669 5666 5665 5664 5663 5662
5805 5804 5802 5800 5797 5795 5792 5789 5786 5781 5777 5774 5769 5763 5759 5755 5751 5746 5740 5735 5730 5725 5719 5714 5708 5703 5697 5692 5686 5681 5675 5670 5666 5661 5657 5653 5651 5649 5646 5643 5642 5642 5642 5641
5804 5802 5800 5798 5795 5792 5788 5785 5780 5775 5770 5766 5760 5754 5748 5742 5738 5734 5728 5723 5718 5712 5705 5698 5691 5686 5680 5673 5667 5660 5654 5648 5643 5638 5633 5628 5624 5622 5620 5618 5616 5616 5617 5617
5803 5800 5797 5794 5791 5788 5784 5780 5775 5769 5763 5757 5750 5745 5737 5731 5725 5720 5715 5709 5702 5695 5688 5680 5673 5665 5658 5651 5644 5637 5630 5624 5618 5612 5607 5601 5597 5595 5593 5592 5590 5589 5590 5592
5800 5798 5794 5790 5787 5782 5777 5773 5768 5761 5755 5750 5744 5738 5731 5722 5714 5709 5701 5693 5685 5678 5671 5662 5653 5645 5637 5629 5620 5613 5606 5599 5592 5585 5580 5574 5570 5567 5566 5565 5564 5563 5564 5567
5797 5794 5791 5786 5782 5777 5771 5766 5760 5755 5749 5744 5737 5729 5722 5712 5704 5695 5685 5677 5670 5662 5652 5641 5631 5622 5612 5603 5594 5586 5579 5573 5567 5560 5555 5549 5544 5542 5541 5541 5541 5541 5543 5546
5794 5791 5786 5782 5777 5772 5766 5760 5754 5749 5742 5735 5727 5717 5710 5701 5691 5680 5669 5660 5652 5641 5630 5619 5609 5599 5589 5580 5571 5563 5555 5548 5542 5537 5532 5528 5523 5520 5519 5520 5521 5522 5525 5529
5789 5787 5782 5777 5773 5767 5761 5755 5749 5741 5733 5727 5722 5707 5696 5686 5672 5661 5652 5643 5634 5623 5610 5599 5588 5578 5570 5562 5554 5546 5537 5529 5521 5513 5507 5502 5499 5496 5495 5496 5498 5502 5507 5512
5785 5782 5777 5771 5766 5761 5755 5749 5741 5734 5725 5715 5707 5701 5685 5665 5652 5644 5637 5627 5614 5602 5591 5581 5572 5564 5556 5549 5541 5532 5522 5511 5500 5489 5481 5475 5472 5471 5472 5474 5477 5482 5489 5494
5781 5777 5772 5767 5761 5754 5748 5741 5733 5726 5718 5706 5695 5691 5668 5650 5638 5628 5619 5609 5598 5587 5576 5566 5557 5550 5544 5537 5528 5519 5508 5495 5483 5474 5466 5459 5455 5454 5454 5456 5459 5465 5471 5477
5776 5771 5766 5760 5756 5748 5739 5731 5722 5712 5703 5694 5682 5675 5659 5642 5629 5617 5605 5592 5581 5570 5561 5552 5545 5539 5532 5525 5517 5507 5497 5485 5475 5467 5460 5454 5449 5445 5443 5444 5446 5450 5456 5463
5771 5766 5761 5754 5745 5737 5729 5720 5710 5699 5688 5677 5665 5649 5639 5624 5611 5600 5588 5576 5566 5556 5548 5541 5535 5530 5523 5515 5507 5498 5489 5480 5471 5464 5456 5450 5443 5438 5435 5435 5436 5439 5445 5451
5767 5761 5754 5747 5738 5730 5720 5709 5700 5687 5673 5660 5646 5632 5619 5604 5592 5581 5569 5560 5553 5545 5538 5531 5526 5521 5514 5507 5500 5491 5483 5475 5468 5460 5453 5445 5437 5431 5428 5427 5429 5432 5437 5443
5760 5754 5747 5740 5730 5721 5709 5698 5686 5671 5658 5644 5628 5618 5605 5592 5581 5570 5557 5547 5540 5532 5527 5522 5518 5512 5506 5500 5493 5486 5479 5472 5465 5458 5451 5443 5434 5428 5425 5424 5425 5429 5433 5437
5753 5746 5739 5731 5720 5709 5697 5686 5673 5657 5642 5626 5614 5603 5589 5579 5569 5557 5545 5537 5529 5522 5518 5514 5510 5505 5499 5493 5486 5480 5474 5468 5461 5455 5449 5442 5435 5430 5426 5425 5426 5427 5430 5434
5745 5737 5728 5718 5708 5697 5684 5672 5660 5645 5631 5614 5603 5592 5580 5570 5563 5552 5540 5531 5523 5517 5513 5508 5504 5499 5493 5486 5480 5475 5469 5463 5457 5452 5446 5441 5436 5432 5428 5426 5426 5426 5428 5430
5736 5727 5717 5706 5694 5685 5671 5660 5646 5634 5623 5605 5593 5584 5576 5566 5559 5550 5539 5529 5521 5514 5508 5503 5498 5492 5486 5480 5474 5469 5463 5458 5453 5448 5443 5439 5435 5431 5428 5426 5424 5424 5424 5425
5728 5719 5708 5694 5682 5672 5659 5645 5630 5618 5611 5599 5588 5578 5568 5557 5548 5542 5533 5525 5518 5511 5504 5499 5493 5487 5481 5475 5469 5463 5457 5452 5447 5443 5438 5434 5431 5428 5426 5423 5422 5420 5420 5420
5720 5709 5699 5686 5672 5661 5648 5634 5620 5611 5598 5586 5578 5570 5560 5551 5543 5536 5527 5520 5513 5507 5500 5494 5488 5482 5476 5469 5463 5456 5450 5445 5440 5435 5431 5427 5424 5422 5419 5418 5416 5415 5415 5414
5710 5699 5687 5675 5663 5653 5635 5621 5610 5602 5591 5581 5572 5563 5555 5547 5540 5532 5524 5517 5510 5503 5496 5489 5483 5476 5469 5463 5456 5449 5443 5437 5431 5426 5422 5418 5415 5413 5411 5409 5408 5407 5406 5406
5703 5692 5679 5668 5657 5640 5624 5611 5601 5592 5584 5575 5567 5559 5551 5543 5535 5527 5520 5512 5505 5498 5491 5484 5476 5469 5462 5455 5448 5441 5434 5427 5421 5416 5411 5407 5404 5401 5400 5398 5397 5396 5395 5394
5694 5684 5673 5660 5647 5633 5620 5606 5596 5587 5578 5569 5561 5553 5546 5539 5531 5523 5515 5507 5500 5492 5485 5477 5469 5462 5454 5446 5438 5431 5424 5417 5411 5406 5401 5396 5393 5389 5387 5385 5384 5382 5381 5380
5685 5674 5664 5652 5639 5626 5612 5599 5590 5582 5573 5565 5557 5549 5541 5534 5526 5518 5510 5502 5494 5486 5478 5469 5461 5452 5444 5436 5428 5420 5413 5407 5401 5395 5390 5385 5381 5377 5374 5371 5369 5367 5366 5364
5677 5667 5655 5643 5628 5616 5604 5592 5584 5576 5568 5560 5553 5545 5537 5529 5522 5513 5505 5497 5488 5479 5470 5461 5452 5442 5433 5425 5417 5409 5402 5395 5389 5383 5378 5373 5368 5364 5360 5356 5353 5350 5348 5346
Wind_Speed
14 15 15 16 16 17 17 18 19 21 20 21 23 30 33 30 32 35 36 36 38 39 41 42 43 45 46 48 49 50 50 51 53 55 56 57 58 59 60 61 62 63 63 62
15 15 15 15 16 18 19 20 21 24 26 27 27 31 35 35 35 36 38 40 41 41 42 43 45 46 47 49 52 53 52 52 53 54 55 56 57 58 59 59 60 61 62 62
18 18 19 19 20 21 22 23 25 27 29 31 34 35 37 37 37 38 41 43 43 43 44 46 48 50 51 53 55 57 59 60 60 61 62 63 63 63 64 65 65 64 64 63
18 19 20 21 23 24 26 28 30 32 35 36 38 40 41 42 41 42 43 45 45 47 50 53 56 57 58 60 62 65 67 68 70 71 72 73 73 72 71 71 72 71 70 69
22 22 23 25 27 28 30 32 34 36 37 38 39 40 43 46 47 47 47 50 53 56 60 63 66 67 68 70 72 74 75 76 78 79 80 80 79 78 77 76 76 76 75 73
22 24 26 29 31 32 34 36 38 40 41 43 44 45 50 52 53 56 58 61 64 67 70 73 74 76 77 79 81 82 83 84 84 84 84 83 81 78 77 75 73 74 76 75
25 25 28 30 32 34 37 40 42 43 44 43 45 49 53 51 59 64 67 70 72 74 75 76 78 80 81 83 85 85 84 83 82 82 80 78 75 72 70 67 66 66 67 67
27 30 31 34 35 37 38 40 42 44 45 47 50 53 57 60 64 69 72 75 76 75 76 79 81 83 84 84 84 83 81 78 75 71 68 65 62 60 58 56 56 57 58 57
28 31 33 35 38 40 41 41 42 44 47 52 55 58 61 63 69 74 77 78 78 78 78 80 81 81 81 80 77 75 71 69 66 63 61 60 61 61 60 58 55 55 55 56
29 30 33 36 39 41 43 44 46 48 52 55 59 61 61 66 75 80 79 78 79 79 79 79 79 78 74 69 64 61 61 62 64 66 66 66 66 65 63 60 57 55 52 54
30 32 36 40 42 43 45 47 50 53 56 60 64 64 64 71 76 78 79 78 77 78 77 75 72 66 59 55 55 57 59 61 62 62 60 59 57 56 55 54 54 53 52 52
31 33 37 40 42 43 46 50 54 58 60 62 65 70 64 71 75 76 74 71 71 70 68 64 57 51 49 50 51 52 54 54 50 46 42 40 38 39 41 44 47 48 47 48
33 35 38 41 44 46 50 54 58 61 63 65 69 73 70 73 72 69 68 68 67 63 58 52 47 45 45 46 47 47 49 47 42 38 35 34 33 32 32 33 36 39 40 40
34 37 40 43 47 51 54 56 58 63 67 72 75 78 77 74 71 68 66 64 61 55 50 45 42 42 41 44 45 44 44 42 38 36 35 35 34 30 28 27 28 29 31 33
37 40 44 47 51 54 58 60 62 68 73 77 79 78 72 68 64 61 60 59 54 49 44 40 39 39 39 42 43 41 40 39 36 34 35 36 34 27 22 20 20 21 23 26
39 44 49 51 55 59 63 65 69 74 77 76 76 71 63 60 58 57 58 57 52 46 41 38 36 36 38 40 41 39 37 37 34 33 34 36 33 23 15 11 11 14 17 20
43 48 53 56 59 62 65 71 73 77 73 73 71 64 60 58 56 56 57 53 48 41 37 35 33 34 37 38 39 38 37 36 33 31 30 32 30 22 14 9 9 12 16 19
48 52 56 60 64 63 72 75 75 75 67 67 63 58 54 54 51 51 50 46 41 37 34 32 31 33 35 37 38 38 37 35 33 30 27 27 26 21 14 11 10 12 15 18
51 55 59 63 66 67 74 75 75 74 63 62 56 51 50 48 44 43 43 42 40 36 34 32 33 34 36 37 38 38 37 35 33 30 28 26 24 20 16 13 12 13 14 17
54 58 62 65 68 71 76 76 74 69 58 55 50 50 49 46 45 43 42 41 39 36 34 34 35 36 37 39 40 39 38 36 34 32 30 28 26 23 20 17 15 15 16 18
57 62 65 68 70 71 76 74 70 61 58 52 49 49 46 45 45 44 42 41 40 38 36 36 37 38 39 41 42 41 39 37 35 33 32 31 30 28 25 23 22 21 22 23
59 62 65 69 70 71 74 70 64 55 49 48 48 47 44 43 43 42 40 40 39 39 39 39 40 41 42 44 44 44 42 40 38 36 34 33 32 32 31 30 29 29 29 30
60 62 65 69 70 72 69 63 56 49 48 47 46 43 40 42 43 41 40 40 41 42 43 43 44 45 46 47 46 45 44 42 39 37 35 34 34 34 34 34 35 35 36 37
62 64 67 71 74 71 67 62 53 46 46 47 46 42 40 41 42 42 41 42 44 45 46 47 47 48 48 48 47 46 45 43 40 37 35 34 34 34 35 36 37 38 39 41
61 65 69 72 75 73 66 58 50 44 45 45 45 42 40 41 43 43 44 45 46 47 49 50 51 51 50 49 48 47 46 44 42 40 38 36 36 36 36 38 39 40 41 43
61 65 70 73 75 72 63 54 47 44 44 44 44 42 40 40 43 45 47 48 49 51 52 54 54 54 52 51 50 50 49 47 45 43 42 41 41 40 41 41 42 43 44 45
Wind_Direction
333 327 324 325 323 321 320 319 317 316 317 314 312 307 309 311 307 302 300 299 298 296 295 294 294 293 292 290 290 289 287 284 281 278 277 276 276 275 275 274 274 272 271 270
349 350 348 346 341 336 334 330 325 322 320 318 314 308 310 312 309 305 302 300 300 300 301 300 299 298 295 293 292 292 291 289 285 282 279 278 277 277 277 277 276 275 273 271
353 352 348 345 343 341 338 334 330 325 322 319 316 313 312 310 308 306 303 301 301 303 304 303 301 299 296 294 293 294 294 293 291 288 286 284 283 282 281 280 279 277 276 274
358 356 353 348 343 339 335 332 328 324 321 321 318 314 313 309 311 311 306 302 302 303 304 303 301 299 298 297 296 296 296 295 294 293 291 289 287 285 283 282 281 279 278 275
351 350 347 343 339 335 332 329 326 323 320 317 316 318 316 313 315 312 309 308 308 306 306 306 305 303 301 300 298 297 296 295 294 293 291 290 289 287 285 282 280 278 276 273
345 342 339 337 335 332 329 326 324 321 321 323 324 323 316 319 316 314 313 312 310 308 308 308 306 304 302 301 299 298 296 295 294 293 292 290 288 286 283 280 276 274 273 271
340 339 336 335 333 330 328 326 325 325 327 326 324 319 317 318 316 315 313 310 309 309 310 307 304 302 301 300 299 298 297 296 295 293 291 289 286 283 280 276 272 268 267 266
338 337 337 335 333 330 329 327 326 326 325 321 322 321 319 316 315 312 309 307 309 310 309 307 306 305 303 302 301 300 298 296 294 291 288 285 282 280 279 276 271 265 261 260
339 338 336 335 334 332 330 328 326 325 322 321 322 319 315 314 311 307 305 307 310 311 309 307 306 305 304 303 303 302 300 298 296 292 286 281 279 279 278 277 272 266 260 256
339 339 335 334 335 333 330 328 326 326 324 321 319 317 316 311 305 304 306 309 311 309 308 307 305 304 305 305 305 305 305 303 300 295 289 283 279 276 274 272 268 263 259 253
338 339 338 337 338 335 332 329 327 325 322 319 316 315 313 305 303 307 310 311 310 308 307 305 304 305 306 307 309 311 312 311 307 301 296 289 283 276 270 265 262 259 255 252
336 337 337 336 335 334 332 329 326 323 320 317 313 314 311 305 307 310 310 308 305 304 304 306 307 308 310 313 317 319 321 322 319 315 310 304 296 285 274 266 262 258 255 252
335 336 336 333 332 332 329 327 325 321 317 314 313 312 311 310 309 308 307 306 308 309 309 309 309 312 316 321 324 327 331 332 329 325 321 317 310 297 283 272 264 258 254 252
331 332 333 332 330 331 329 325 322 318 317 316 317 315 316 315 314 313 312 311 312 312 312 311 311 315 320 326 329 332 336 336 332 329 327 323 318 305 291 279 267 257 248 245
327 328 330 331 331 330 327 324 321 319 318 319 318 318 320 317 317 317 316 314 314 312 313 313 315 319 325 327 331 333 336 336 334 333 333 332 328 316 298 281 268 254 242 239
326 327 329 330 330 329 327 326 324 321 321 321 319 321 320 319 321 322 319 318 317 316 315 316 319 323 327 329 331 333 333 333 333 333 337 341 342 336 319 289 260 247 241 238
326 328 329 330 329 328 326 329 326 323 324 322 322 324 324 326 329 327 324 325 325 323 321 321 322 326 330 331 332 333 332 331 330 330 334 341 347 345 333 303 265 249 241 239
328 329 330 330 330 328 328 329 327 326 326 323 325 327 329 330 331 329 328 330 328 326 324 323 324 329 331 332 332 332 333 331 328 324 326 333 341 342 330 308 282 262 250 243
330 331 330 329 329 330 327 330 328 327 329 326 328 330 329 328 330 331 332 333 331 330 328 327 328 330 332 332 331 330 331 330 327 321 317 319 324 328 324 305 286 272 261 252
331 331 331 330 330 329 330 330 329 328 330 330 330 331 331 330 332 336 337 337 336 333 331 329 329 330 331 331 330 328 326 324 323 319 312 307 306 307 307 300 287 276 267 259
332 332 333 332 331 331 331 330 329 330 332 333 334 333 333 332 333 334 336 338 338 336 333 330 329 329 329 329 328 327 325 322 318 315 310 303 297 293 289 286 281 274 268 264
333 333 332 331 332 331 333 331 330 331 330 331 333 333 332 333 334 334 335 337 338 338 335 331 329 327 326 325 325 325 324 322 318 313 308 301 295 290 284 278 274 270 267 265
333 333 331 332 332 333 333 330 329 329 331 333 334 333 332 334 335 335 335 336 336 336 334 332 329 327 325 324 323 323 322 320 317 313 308 302 296 290 285 280 275 270 267 265
332 332 332 332 333 334 332 331 330 331 332 333 334 332 330 333 336 337 336 335 334 333 331 330 328 326 324 323 322 321 320 318 316 312 307 303 298 293 287 283 279 275 271 269
331 331 332 332 333 333 333 331 331 331 331 333 333 331 328 330 334 336 335 334 333 331 330 328 327 325 324 323 322 321 319 318 314 311 307 302 298 294 289 284 280 277 274 272
331 331 332 333 334 334 334 332 331 331 330 332 332 330 327 328 331 333 333 333 332 330 329 327 326 324 323 321 321 319 317 315 312 308 304 300 296 292 289 285 281 277 275 272